Canby, MN

5:56 AM CST on February 13, 2016 (GMT -0600)
Canby

Weather History for KCNB - May, 2012

Change the Weather History Date:

Friday, May 18, 2012

  Actual Average (KMML) Record (KMML)
Temperature  
Mean Temperature 80 °F -  
Max Temperature 91 °F 73 °F 96 °F (1998)
Min Temperature 69 °F 48 °F 28 °F (2002)
Cooling Degree Days 14    
Growing Degree Days 30 (Base 50)    
Moisture  
Dew Point 51 °F    
Average Humidity 38    
Maximum Humidity 57    
Minimum Humidity 20    
Precipitation  
Precipitation 0.00 in - - ()
Sea Level Pressure  
Sea Level Pressure 29.64 in    
Wind  
Wind Speed 18 mph (South)    
Max Wind Speed 23 mph    
Max Gust Speed 38 mph    
Visibility 10 miles    
Events      
Averages and records for this station are not official NWS values.
T = Trace of Precipitation, MM = Missing Value Source: NWS Daily Summary

Daily Weather History Graph

Daily Weather History Graph

Search for Another Location

Airport or City:

Trip Planner

Search our weather history database for the weather conditions in past years. The results will help you decide how hot, cold, wet, or windy it might be!

Date:

Astronomy

May. 18, 2012 Rise Set
Actual Time 5:53 AM CDT 8:50 PM CDT
Civil Twilight 5:18 AM CDT 9:25 PM CDT
Nautical Twilight 4:34 AM CDT 10:09 PM CDT
Astronomical Twilight 3:42 AM CDT 11:01 PM CDT
Moon 4:27 AM CDT (5/18) 6:57 PM CDT (5/18)
Length of Visible Light 16h 06m
Length of Day
14h 57m
Waning Crescent, 5% of the Moon is Illuminated
May 18
Waning Crescent
May 20
New
May 28
First Quarter
Jun 4
Full
Jun 11
Last Quarter

Hourly Weather History & Observations

Time (CDT) Temp. Heat Index Dew Point Humidity Pressure Visibility Wind Dir Wind Speed Gust Speed Precip Events Conditions
12:15 AM 76.1 °F - 49.5 °F 39% 29.66 in 10.0 mi South 17.3 mph 27.6 mph N/A   Clear
12:35 AM 75.2 °F - 51.1 °F 43% 29.66 in 10.0 mi South 18.4 mph 25.3 mph N/A   Clear
12:55 AM 74.7 °F - 52.0 °F 45% 29.66 in 10.0 mi South 19.6 mph 29.9 mph N/A   Clear
1:15 AM 74.3 °F - 52.3 °F 46% 29.66 in 10.0 mi South 19.6 mph 27.6 mph N/A   Clear
1:35 AM 73.8 °F - 52.7 °F 48% 29.66 in 10.0 mi South 16.1 mph 26.5 mph N/A   Clear
2:15 AM 72.7 °F - 53.1 °F 50% 29.65 in 10.0 mi South 16.1 mph 27.6 mph N/A   Clear
2:35 AM 72.3 °F - 53.1 °F 51% 29.64 in 10.0 mi South 16.1 mph 24.2 mph N/A   Clear
2:55 AM 72.0 °F - 53.1 °F 51% 29.65 in 10.0 mi South 15.0 mph 26.5 mph N/A   Clear
3:15 AM 71.6 °F - 53.4 °F 53% 29.64 in 10.0 mi South 16.1 mph 29.9 mph N/A   Clear
3:35 AM 71.1 °F - 53.6 °F 54% 29.64 in 10.0 mi South 17.3 mph 25.3 mph N/A   Clear
3:55 AM 70.9 °F - 53.6 °F 54% 29.63 in 10.0 mi South 19.6 mph 27.6 mph N/A   Clear
4:15 AM 70.9 °F - 53.8 °F 55% 29.64 in 10.0 mi SSW 17.3 mph 31.1 mph N/A   Clear
4:35 AM 70.7 °F - 53.8 °F 55% 29.64 in 10.0 mi South 21.9 mph 29.9 mph N/A   Clear
4:55 AM 70.7 °F - 53.8 °F 55% 29.63 in 10.0 mi South 23.0 mph 38.0 mph N/A   Clear
5:16 AM 70.3 °F - 53.6 °F 55% 29.63 in 10.0 mi South 18.4 mph 28.8 mph N/A   Clear
5:35 AM 70.3 °F - 53.2 °F 55% 29.63 in 10.0 mi SSW 20.7 mph 29.9 mph N/A   Clear
5:56 AM 70.2 °F - 53.2 °F 55% 29.63 in 10.0 mi SSW 20.7 mph 27.6 mph N/A   Clear
6:15 AM 69.8 °F - 53.4 °F 56% 29.63 in 10.0 mi SSW 20.7 mph 32.2 mph N/A   Clear
6:35 AM 70.0 °F - 53.4 °F 56% 29.64 in 10.0 mi SSW 18.4 mph 32.2 mph N/A   Clear
6:55 AM 69.8 °F - 53.6 °F 56% 29.65 in 10.0 mi SSW 19.6 mph 33.4 mph N/A   Clear
7:15 AM 69.6 °F - 54.0 °F 57% 29.65 in 10.0 mi SSW 21.9 mph 32.2 mph N/A   Clear
7:35 AM 70.0 °F - 54.1 °F 57% 29.66 in 10.0 mi SSW 20.7 mph 31.1 mph N/A   Clear
7:55 AM 70.2 °F - 54.5 °F 57% 29.66 in 10.0 mi SSW 16.1 mph 27.6 mph N/A   Clear
8:15 AM 70.9 °F - 54.5 °F 56% 29.66 in 10.0 mi SSW 19.6 mph 31.1 mph N/A   Clear
8:35 AM 71.8 °F - 54.7 °F 55% 29.66 in 10.0 mi SSW 18.4 mph 33.4 mph N/A   Clear
8:55 AM 72.9 °F - 54.7 °F 53% 29.66 in 10.0 mi SSW 19.6 mph 28.8 mph N/A   Clear
9:15 AM 73.9 °F - 54.5 °F 51% 29.67 in 10.0 mi SSW 19.6 mph 28.8 mph N/A   Clear
9:35 AM 74.7 °F - 55.0 °F 50% 29.67 in 10.0 mi SSW 16.1 mph 26.5 mph N/A   Clear
9:56 AM 77.0 °F - 55.4 °F 47% 29.67 in 10.0 mi South 20.7 mph 28.8 mph N/A   Clear
10:15 AM 78.1 °F - 54.9 °F 45% 29.67 in 10.0 mi SSW 21.9 mph 29.9 mph N/A   Clear
10:35 AM 79.9 °F - 53.6 °F 40% 29.66 in 10.0 mi SSW 16.1 mph 28.8 mph N/A   Clear
10:55 AM 81.5 °F 80.9 °F 54.5 °F 39% 29.67 in 10.0 mi South 17.3 mph 25.3 mph N/A   Clear
11:15 AM 82.4 °F 81.7 °F 54.9 °F 39% 29.67 in 10.0 mi South 17.3 mph 25.3 mph N/A   Clear
11:35 AM 83.3 °F 82.1 °F 53.6 °F 36% 29.67 in 10.0 mi South 11.5 mph 27.6 mph N/A   Clear
11:55 AM 84.9 °F - 51.8 °F 32% 29.67 in 10.0 mi South 17.3 mph 26.5 mph N/A   Clear
12:15 PM 86.0 °F - 50.4 °F 29% 29.66 in 10.0 mi South 18.4 mph 27.6 mph N/A   Clear
12:35 PM 86.9 °F - 49.6 °F 28% 29.66 in 10.0 mi South 13.8 mph 25.3 mph N/A   Clear
12:55 PM 88.0 °F - 48.4 °F 25% 29.66 in 10.0 mi South 17.3 mph 28.8 mph N/A   Clear
1:15 PM 88.9 °F - 49.8 °F 26% 29.65 in 10.0 mi South 16.1 mph 25.3 mph N/A   Clear
1:35 PM 89.1 °F - 47.5 °F 24% 29.65 in 10.0 mi South 17.3 mph 26.5 mph N/A   Clear
1:55 PM 89.6 °F - 47.3 °F 23% 29.65 in 10.0 mi South 18.4 mph 24.2 mph N/A   Clear
2:15 PM 89.8 °F - 46.6 °F 22% 29.64 in 10.0 mi SSW 16.1 mph 25.3 mph N/A   Clear
2:35 PM 90.1 °F - 48.9 °F 24% 29.64 in 10.0 mi South 12.7 mph 24.2 mph N/A   Clear
2:56 PM 90.1 °F - 46.4 °F 22% 29.63 in 10.0 mi South 17.3 mph 24.2 mph N/A   Clear
3:15 PM 90.5 °F - 46.0 °F 21% 29.63 in 10.0 mi South 10.4 mph 25.3 mph N/A   Clear
3:35 PM 90.5 °F - 44.6 °F 20% 29.62 in 10.0 mi South 12.7 mph 27.6 mph N/A   Clear
3:55 PM 90.9 °F - 46.2 °F 21% 29.62 in 10.0 mi South 18.4 mph 27.6 mph N/A   Clear
4:15 PM 90.9 °F - 45.5 °F 21% 29.62 in 10.0 mi South 19.6 mph 28.8 mph N/A   Clear
4:35 PM 90.5 °F - 45.0 °F 21% 29.61 in 10.0 mi South 17.3 mph 29.9 mph N/A   Clear
4:55 PM 90.5 °F - 46.9 °F 22% 29.61 in 10.0 mi South 19.6 mph 27.6 mph N/A   Clear
5:16 PM 89.8 °F - 47.7 °F 23% 29.61 in 10.0 mi South 18.4 mph 26.5 mph N/A   Clear
5:35 PM 90.1 °F - 47.5 °F 23% 29.60 in 10.0 mi South 12.7 mph 27.6 mph N/A   Clear
5:55 PM 90.1 °F - 47.3 °F 23% 29.60 in 10.0 mi South 15.0 mph 24.2 mph N/A   Clear
6:15 PM 89.6 °F - 47.1 °F 23% 29.60 in 10.0 mi South 19.6 mph 29.9 mph N/A   Clear
6:35 PM 89.6 °F - 46.4 °F 22% 29.59 in 10.0 mi South 17.3 mph 26.5 mph N/A   Clear
6:56 PM 89.2 °F - 47.1 °F 23% 29.59 in 10.0 mi South 13.8 mph 27.6 mph N/A   Clear
7:15 PM 87.1 °F - 50.7 °F 29% 29.59 in 10.0 mi SSE 16.1 mph 20.7 mph N/A   Clear
7:35 PM 86.4 °F - 50.9 °F 29% 29.59 in 10.0 mi South 13.8 mph 18.4 mph N/A   Clear
7:56 PM 86.5 °F - 48.6 °F 27% 29.59 in 10.0 mi South 15.0 mph 21.9 mph N/A   Clear
8:15 PM 85.3 °F - 50.2 °F 30% 29.60 in 10.0 mi SSE 12.7 mph 21.9 mph N/A   Clear
8:36 PM 84.6 °F - 50.2 °F 30% 29.61 in 10.0 mi SSE 15.0 mph 20.7 mph N/A   Clear
8:55 PM 83.5 °F - 49.5 °F 31% 29.61 in 10.0 mi SSE 13.8 mph - N/A   Clear
9:15 PM 82.6 °F - 50.0 °F 32% 29.62 in 10.0 mi SSE 15.0 mph 20.7 mph N/A   Clear
9:35 PM 82.2 °F - 50.7 °F 33% 29.63 in 10.0 mi South 16.1 mph 20.7 mph N/A   Clear
9:55 PM 81.5 °F - 50.9 °F 34% 29.64 in 10.0 mi SSE 12.7 mph 19.6 mph N/A   Clear
10:15 PM 81.3 °F - 50.5 °F 34% 29.64 in 10.0 mi SSE 15.0 mph 24.2 mph N/A   Clear
10:35 PM 80.8 °F - 50.5 °F 35% 29.64 in 10.0 mi South 17.3 mph 25.3 mph N/A   Clear
10:55 PM 80.1 °F - 51.6 °F 37% 29.65 in 10.0 mi SSE 17.3 mph 25.3 mph N/A   Clear
11:15 PM 80.1 °F - 51.8 °F 37% 29.65 in 10.0 mi South 17.3 mph 24.2 mph N/A   Clear
11:35 PM 79.2 °F - 51.6 °F 38% 29.64 in 10.0 mi South 19.6 mph 25.3 mph N/A   Clear
11:55 PM 79.0 °F - 50.9 °F 37% 29.64 in 10.0 mi South 18.4 mph 32.2 mph N/A   Clear